Regional Weather Roundup
Issued by NWS

Home | Current Version | Previous Version | Text Only | Print | Product List | Glossary Off
Versions: 1 2 3 4 5 6 7 8 9 10 11 12 13 14 15 16 17 18 19 20 21 22 23 24 25 26 27 28 29 30 31 32 33 34 35 36 37 38 39 40 41 42 43 44 45 46 47 48 49 50

000
ASUS43 KLMK 251910
RWRKY
KENTUCKY REGIONAL WEATHER ROUNDUP
NATIONAL WEATHER SERVICE LOUISVILLE KY
300 PM EDT FRI JUL 25 2014

NOTE "FAIR" INDICATES FEW OR NO CLOUDS BELOW 12,000 FEET
WITH NO SIGNIFICANT WEATHER AND/OR OBSTRUCTIONS TO VISIBILITY.

KYZ001>023-026-027-061>063-070>075-252000-
WESTERN AND SOUTH CENTRAL KENTUCKY

CITY           SKY/WX    TMP DP  RH WIND       PRES   REMARKS
PADUCAH        MOSUNNY   81  60  48 W6        30.03F
HENDERSON      PTSUNNY   79  55  44 NE6       30.04F
OWENSBORO      PTSUNNY   80  55  42 VRB6      30.06R
HOPKINSVILLE   SUNNY     83  55  38 VRB1      30.04S
BOWLING GREEN  PTSUNNY   82  55  39 E6        30.05S
GLASGOW        SUNNY     81  55  41 NW5       30.05S
$$

KYZ024-025-028>034-038-045-046-053-252000-
NORTH CENTRAL KENTUCKY

CITY           SKY/WX    TMP DP  RH WIND       PRES   REMARKS
LOUISVILLE/SDF PTSUNNY   83  53  35 CALM      30.04F
LOUISVILLE/LOU MOSUNNY   83  54  36 NW6       30.05F
FORT KNOX      MOSUNNY   79  58  48 NW7       30.05F
$$

KYZ035>037-039>044-047>052-055>060-089>105-252000-
NORTHEAST KENTUCKY

CITY           SKY/WX    TMP DP  RH WIND       PRES   REMARKS
LEXINGTON      SUNNY     80  55  42 CALM      30.06F
COVINGTON      PTSUNNY   77  54  44 VRB5      30.05F
FRANKFORT      MOSUNNY   81  54  39 VRB3      30.05S
$$

KYZ054-064>069-076>088-106>120-252000-
SOUTHEAST KENTUCKY

CITY           SKY/WX    TMP DP  RH WIND       PRES   REMARKS
JACKSON        CLOUDY    73  57  57 CALM      30.08F
LONDON         CLOUDY    75  58  55 CALM      30.08F
SOMERSET       MOSUNNY   73  59  60 CALM      30.09S
MIDDLESBORO    MOSUNNY   79  65  62 N6        30.06S
MONTICELLO     PTCLDY    78  63  60 N5        30.09S
$$




USA.gov is the U.S. government's official web portal to all federal, state and local government web resources and services.